GFSGBSN_925_spd_000.txt.gz
Wind_Speed
18 17 17 16 16 14 16 17 18 20 19 17 17 16 15 14 14 14 13 12 10 8 7 9 5 7 2 2 8 7 10 9 13 11 10 6 6 7 6 4 5 7 4 5 8 7 4
18 17 17 16 16 14 15 17 19 18 16 14 14 13 13 12 12 12 12 10 9 8 7 5 4 4 1 4 3 12 12 10 12 14 10 11 8 7 7 9 6 5 8 7 6 4 3
18 17 16 15 15 14 15 17 16 14 12 11 11 12 12 11 11 11 11 9 8 6 5 4 3 1 2 12 6 12 7 9 7 16 4 5 10 3 2 7 7 9 6 4 1 3 2
19 17 15 14 15 14 15 15 13 10 9 9 8 9 9 11 10 11 10 8 6 4 4 4 1 4 6 11 13 13 6 7 6 1 6 6 5 2 4 2 5 5 6 3 4 5 2
20 17 15 14 15 13 13 12 10 8 7 6 7 8 9 8 7 7 8 6 4 3 3 2 3 3 8 12 4 5 4 5 11 4 7 8 4 3 7 4 5 7 3 3 3 7 3
20 18 15 14 14 12 12 9 7 6 5 5 6 6 7 8 8 8 8 5 1 1 2 2 2 1 6 4 5 1 3 6 2 6 7 7 6 4 5 5 3 5 4 5 7 6 4
21 19 15 14 12 11 10 7 5 4 3 2 3 5 7 9 8 8 6 3 1 2 4 6 4 4 4 4 4 3 5 4 2 5 1 6 6 3 3 4 4 3 3 7 3 5 5
23 19 15 13 11 10 8 6 4 4 3 2 5 7 10 10 8 7 5 1 2 1 5 10 9 8 12 2 2 4 1 2 2 2 3 6 2 3 4 5 6 3 7 5 5 7 7
25 20 16 13 10 10 7 5 4 4 3 4 6 8 10 10 8 5 5 8 7 8 1 3 4 3 1 2 2 1 3 1 3 2 3 6 5 2 5 6 7 5 7 3 3 2 9
26 21 17 13 10 9 7 5 5 5 4 5 6 8 11 10 5 1 4 5 5 3 4 4 3 3 3 3 3 1 3 2 5 8 6 5 6 5 5 4 1 2 3 4 3 3 6
26 21 17 14 11 9 7 6 6 6 6 6 6 7 10 11 3 4 4 9 7 2 4 4 1 3 2 2 4 3 0 4 0 3 6 4 4 6 5 0 1 3 2 2 2 3 3
26 21 18 15 11 9 7 6 7 8 8 8 7 8 8 6 5 3 9 10 1 6 2 3 4 4 2 1 1 3 2 7 2 6 6 4 2 3 1 3 1 1 1 6 4 3 3
27 22 19 15 12 9 7 6 8 10 10 10 7 7 10 2 2 6 8 4 5 5 2 4 4 4 4 2 2 4 5 6 4 5 3 5 4 5 4 4 6 8 5 3 4 4 4
26 22 19 15 12 9 6 6 9 11 12 12 10 10 4 3 2 5 4 5 2 3 4 3 5 4 4 3 5 3 3 4 6 4 3 3 4 4 6 2 1 3 5 5 4 2 2
26 23 19 15 12 9 6 6 9 13 14 14 12 7 2 2 3 4 5 3 6 5 4 6 5 5 2 2 6 6 4 2 2 1 5 4 1 2 0 2 1 3 4 4 6 4 3
27 23 18 14 11 8 6 6 11 14 16 16 10 6 3 4 2 6 4 5 3 2 3 5 6 5 4 5 4 4 2 3 3 6 1 2 4 2 3 5 5 6 2 4 4 2 1
27 22 18 14 11 8 5 7 13 16 18 18 6 3 5 6 3 5 3 5 2 2 5 4 2 4 6 7 5 3 3 3 5 5 5 2 4 4 4 3 1 5 3 5 4 3 4
26 22 17 14 11 9 5 7 14 17 19 17 5 3 4 8 3 1 2 4 2 3 4 5 4 4 4 4 5 3 3 3 7 2 2 2 5 3 1 3 1 2 3 4 4 2 2
25 21 16 14 11 9 6 7 14 19 22 9 4 2 3 1 3 2 5 4 2 2 2 2 2 4 3 4 6 3 4 2 7 4 2 2 2 3 6 4 6 4 2 5 6 3 3
24 20 17 14 11 9 7 7 12 20 20 7 3 2 3 3 1 5 3 1 2 4 3 5 3 6 5 5 6 4 3 3 4 3 2 2 3 5 6 4 3 1 2 4 5 4 4
23 19 16 13 11 9 7 7 10 17 22 4 2 4 6 3 3 3 3 3 3 2 1 4 4 3 5 4 3 4 3 2 4 3 3 3 4 2 2 4 1 1 2 1 4 4 5
22 19 15 12 11 9 8 7 10 17 18 4 3 3 3 4 6 4 5 6 9 3 3 1 2 4 7 5 6 7 7 3 4 1 3 4 2 1 1 5 6 3 5 5 4 4 4
21 18 15 12 10 9 8 8 9 18 17 3 3 1 5 3 4 4 4 6 8 8 3 3 12 7 10 1 5 5 4 6 5 5 3 4 4 3 3 5 6 5 5 3 2 4 3
20 17 14 11 10 9 8 9 9 14 15 8 4 3 4 2 4 6 3 4 6 1 7 3 5 6 4 6 3 7 11 12 12 8 4 5 4 3 2 4 1 5 5 4 9 3 11
20 17 14 11 10 9 9 9 9 9 10 9 3 3 3 1 2 1 7 9 9 7 6 5 5 1 8 6 5 5 5 7 5 7 6 4 4 3 3 3 5 6 4 6 5 3 4
20 16 13 11 9 8 9 9 9 9 8 7 6 5 5 5 4 2 6 8 6 4 5 4 5 5 7 4 4 4 4 4 2 1 5 6 6 4 3 4 6 6 2 4 5 4 9
19 16 13 10 8 8 8 8 9 8 7 7 6 4 5 4 3 3 4 6 6 4 4 1 0 4 4 3 3 3 3 4 5 6 4 3 3 5 3 2 8 7 6 1 5 7 9
19 15 12 10 7 7 7 8 9 8 8 7 8 8 2 3 3 4 3 5 4 3 5 5 4 4 3 4 3 4 3 5 3 4 6 7 6 4 3 2 7 7 5 7 6 3 7
18 15 13 10 8 7 7 8 9 8 7 7 6 8 10 4 3 6 13 9 0 8 6 1 6 4 5 4 1 3 1 1 3 3 3 2 7 5 9 7 5 6 6 3 6 6 6

GFSGBSN_925_spd_003.txt.gz
Wind_Speed
24 23 21 21 18 19 19 18 19 21 22 22 21 20 17 18 15 13 12 12 11 11 10 9 7 6 0 3 8 5 4 6 14 20 16 7 6 6 5 5 2 4 3 1 6 8 6
24 25 23 22 19 19 19 18 20 22 22 20 18 18 15 15 13 11 11 12 12 11 9 7 6 2 2 4 5 3 6 10 11 19 9 12 8 8 3 7 7 6 1 4 4 6 5
26 26 22 21 20 18 19 18 20 21 20 17 16 14 13 13 12 11 12 12 11 9 7 5 4 3 2 12 3 15 9 14 15 19 6 19 18 4 5 4 4 8 5 4 2 1 3
27 26 23 21 19 17 19 18 19 18 16 15 13 12 11 11 12 11 12 11 9 7 4 5 3 4 6 8 14 14 6 7 3 12 19 5 12 6 2 4 7 5 5 3 5 3 2
27 26 24 22 19 17 18 18 18 15 14 13 12 10 10 10 9 9 9 8 6 3 2 2 2 2 8 10 6 5 2 3 8 6 8 1 5 4 6 5 5 6 3 2 3 6 2
28 27 25 22 20 18 17 17 16 13 12 11 11 9 8 10 9 9 8 6 2 2 2 2 3 2 6 2 4 3 2 5 2 4 5 9 6 4 4 5 4 3 3 3 6 5 5
30 28 26 23 21 18 17 14 13 11 10 9 8 8 9 10 11 11 11 4 1 1 4 7 3 3 5 5 2 4 5 6 5 7 4 3 6 2 4 1 4 2 3 6 4 3 9
32 30 26 24 21 18 16 13 12 10 9 8 7 9 11 13 13 11 6 3 3 2 4 9 4 6 12 8 1 3 2 3 5 2 2 7 2 0 6 5 2 5 4 2 8 10 12
33 31 28 25 22 19 16 14 12 10 10 8 8 10 13 14 12 9 7 7 3 8 1 5 5 4 4 7 3 1 2 2 3 1 2 5 2 3 5 6 5 4 1 3 8 10 8
35 32 29 25 22 19 16 14 12 11 10 9 9 13 14 13 7 4 5 3 6 3 4 5 3 3 2 3 3 1 2 3 4 5 7 6 5 5 5 5 2 3 2 4 10 6 5
36 33 30 26 23 20 17 14 12 12 11 10 11 15 13 11 2 3 2 6 2 4 4 4 3 2 3 4 3 4 6 4 4 4 5 3 2 5 5 1 2 3 2 2 4 4 5
37 34 31 26 24 21 18 14 12 13 13 12 11 14 14 11 5 1 7 4 4 6 2 1 2 1 3 3 1 2 6 8 3 6 7 3 0 3 1 0 0 3 4 6 4 3 3
37 35 31 27 24 22 18 14 14 14 15 14 12 14 13 6 1 5 5 4 5 4 1 4 4 3 2 1 5 4 4 5 4 5 3 5 4 5 2 2 2 5 5 3 3 3 4
38 36 31 27 24 21 17 14 15 16 16 15 13 14 8 4 2 4 5 5 1 3 5 2 4 3 4 4 3 4 3 3 5 4 3 3 4 4 5 2 1 3 4 5 5 3 2
40 35 31 27 24 20 17 15 16 17 18 16 14 12 2 4 3 3 6 3 6 5 3 6 4 3 2 2 5 5 3 2 2 2 5 4 1 3 1 2 2 1 4 3 6 3 3
40 35 31 27 23 20 17 15 17 19 21 18 12 7 3 6 3 7 4 5 4 4 1 4 5 4 5 4 4 4 1 2 1 3 2 5 4 2 4 3 4 5 4 4 4 3 1
39 34 30 26 22 19 16 16 18 21 23 21 7 3 3 7 4 5 3 5 4 4 1 2 5 4 4 5 4 2 1 2 2 4 4 3 3 4 2 3 1 4 2 6 5 3 4
39 33 29 25 22 18 16 16 20 24 25 21 6 3 1 8 3 1 3 4 5 3 5 4 4 3 4 4 4 3 4 1 4 1 2 1 5 3 1 5 3 1 3 4 4 3 1
37 32 28 24 21 17 15 16 21 26 28 12 4 2 3 2 4 2 4 4 1 1 3 2 3 2 2 5 6 2 3 1 3 3 3 2 2 3 6 6 5 2 2 5 6 3 4
36 31 27 23 19 17 14 16 22 28 28 12 4 2 3 3 1 7 3 4 1 3 2 3 3 5 5 5 6 4 2 2 1 3 4 5 3 5 6 5 3 3 2 3 4 3 3
35 30 25 20 18 16 14 16 23 30 25 8 2 5 5 3 2 4 5 2 3 2 1 3 4 3 5 4 3 3 2 1 4 2 4 4 4 1 3 4 1 1 3 5 6 4 6
33 28 24 20 17 15 15 15 22 30 21 4 4 4 3 2 7 6 3 6 7 2 3 1 6 1 2 6 6 8 6 2 2 6 4 4 3 1 1 6 6 3 5 6 5 3 5
30 26 22 19 17 15 14 15 23 29 21 4 3 2 5 3 4 6 5 6 8 5 5 3 9 5 5 2 4 5 5 6 5 5 3 4 5 3 3 4 5 6 7 6 4 2 6
29 25 21 19 16 14 12 14 22 29 25 6 4 4 4 2 3 6 6 3 6 5 7 1 4 6 3 6 5 7 12 12 12 8 4 5 4 3 2 3 2 5 5 6 4 1 3
28 23 20 18 16 13 11 13 19 30 20 7 4 4 4 2 2 4 7 6 7 6 5 3 4 1 9 5 5 5 5 6 5 7 6 3 5 3 4 3 5 5 5 6 6 7 6
26 22 20 18 15 12 11 12 15 21 21 12 6 7 3 6 3 6 5 4 5 4 5 3 5 9 7 4 4 4 4 4 2 1 4 5 6 4 2 4 6 6 3 4 4 5 11
25 22 19 17 13 11 11 13 12 16 22 17 4 5 3 4 2 5 4 6 6 4 4 1 3 3 3 3 3 3 3 3 4 5 4 2 3 4 2 3 8 7 4 2 5 7 10
23 21 18 15 12 10 11 11 10 11 13 10 6 4 3 3 2 1 2 6 4 3 5 5 4 4 3 4 3 4 3 5 2 4 5 7 6 4 3 1 8 7 4 7 6 1 9
22 20 17 14 12 10 11 11 10 12 17 10 6 11 12 5 3 4 11 7 1 8 6 2 5 4 4 4 1 3 2 1 3 3 2 3 7 5 9 6 4 6 5 4 5 6 7

GFSGBSN_925_spd_006.txt.gz
Wind_Speed
26 22 23 24 25 22 21 22 21 20 20 21 21 22 19 18 16 16 14 14 13 11 10 9 8 7 4 2 9 5 3 9 19 21 17 6 5 5 5 6 5 4 3 3 5 7 6
27 24 25 25 26 24 23 22 22 20 20 21 20 19 17 16 14 14 13 12 12 10 9 8 6 4 2 4 3 4 11 8 16 25 13 11 8 7 4 3 5 6 3 3 4 6 5
30 26 27 26 28 25 24 22 21 21 20 20 18 16 14 14 13 13 12 12 11 9 8 7 4 1 3 13 2 7 15 12 15 21 7 22 14 6 4 2 3 4 5 5 6 3 4
32 28 27 28 28 26 24 22 21 21 19 18 15 15 12 12 12 11 11 10 9 7 7 6 2 3 7 6 12 15 8 6 13 18 22 8 19 4 3 2 6 6 6 4 3 2 3
33 31 28 29 28 26 24 23 20 21 19 16 13 13 11 10 10 9 10 8 7 7 6 2 3 4 8 8 7 3 3 2 3 6 7 2 9 4 5 5 5 6 3 2 1 3 3
36 34 31 28 28 27 25 22 20 20 17 15 12 11 10 9 9 10 8 5 0 1 2 2 3 2 6 2 4 2 3 3 2 1 2 5 5 4 4 5 4 5 3 1 4 1 12
38 35 33 29 29 27 25 22 20 18 16 12 11 8 8 10 10 11 11 4 2 2 5 7 2 3 3 8 5 2 3 3 4 7 2 5 8 4 3 4 4 4 4 3 3 4 8
41 38 34 31 31 28 24 22 19 17 14 12 10 7 8 11 11 12 6 3 4 2 4 10 5 7 10 4 3 2 1 3 5 3 1 7 4 2 3 3 5 5 6 4 3 4 9
44 40 36 33 32 29 25 22 18 17 13 12 8 7 9 11 11 10 10 11 5 4 1 4 5 4 3 8 4 2 1 2 2 3 5 5 2 2 1 5 6 4 5 3 5 10 6
47 42 37 34 33 29 25 22 19 16 14 12 9 9 14 16 9 7 7 5 5 7 4 5 1 4 2 4 4 2 1 4 5 5 5 4 3 4 5 6 4 3 1 5 8 4 4
51 44 38 36 34 31 26 22 20 16 14 14 12 13 18 20 2 5 2 4 4 2 4 4 3 1 2 4 5 2 5 5 4 4 5 3 2 5 7 1 3 3 6 6 3 5 5
52 45 40 37 35 31 26 22 20 17 15 16 14 16 18 18 8 6 5 2 2 6 3 2 2 1 3 4 2 3 6 8 4 6 6 3 2 4 1 3 2 4 6 6 4 3 2
48 46 42 38 35 32 27 23 20 18 16 17 16 19 24 9 3 4 2 3 5 4 1 3 3 2 3 5 5 4 5 6 3 5 4 6 4 5 2 3 3 6 5 3 3 3 4
50 48 43 39 35 32 27 24 20 19 18 18 17 18 21 11 4 3 2 6 1 3 5 1 3 3 4 3 4 5 3 3 5 5 3 4 5 3 4 2 4 3 5 5 6 3 3
55 49 44 39 36 31 27 24 21 20 19 21 17 16 5 5 5 5 6 4 6 6 3 5 4 4 1 2 5 4 3 2 1 2 5 4 1 3 2 1 3 2 3 3 6 3 3
56 49 44 40 36 31 28 24 22 21 22 23 14 11 4 7 4 5 5 4 3 4 2 3 4 3 4 3 3 3 1 1 2 2 2 5 3 2 3 2 5 2 5 3 3 3 2
55 49 44 39 35 30 28 24 23 23 24 24 7 4 3 5 4 5 4 5 5 6 4 3 5 4 3 4 3 2 2 1 1 3 3 3 4 4 1 3 2 2 2 6 5 3 4
52 48 44 39 33 30 27 25 23 25 26 23 5 3 2 5 4 1 4 4 4 4 1 2 4 3 4 3 4 3 5 2 3 1 3 1 5 2 2 2 2 1 3 4 4 3 1
50 47 42 38 34 29 27 25 24 28 33 12 4 2 4 2 4 2 3 2 3 3 2 2 3 3 3 4 5 2 3 1 3 1 5 4 2 3 6 5 4 2 3 4 6 3 4
49 46 41 37 32 28 26 24 26 31 33 12 4 2 4 4 0 8 4 3 4 2 1 3 4 4 4 3 5 5 3 2 2 3 7 6 3 5 6 4 2 3 4 4 5 3 3
47 43 39 34 30 27 25 24 28 35 33 9 2 4 4 3 2 5 5 2 3 2 2 5 4 3 5 4 3 3 2 2 5 2 4 4 4 2 2 4 2 1 4 6 6 5 6
44 40 36 31 28 25 25 24 30 37 30 3 5 4 3 1 6 7 5 7 6 1 2 1 5 2 2 5 6 8 6 3 4 4 3 3 3 0 0 4 5 3 5 6 4 4 7
41 37 32 29 26 25 23 24 31 38 25 4 3 4 5 4 4 6 6 6 8 5 3 2 6 5 4 1 4 5 6 7 4 5 3 3 5 3 4 3 5 6 8 9 5 4 6
36 32 29 26 24 23 22 24 30 38 29 5 5 6 4 2 3 6 7 5 6 4 7 2 4 5 1 8 7 6 10 11 11 8 3 5 4 3 2 3 2 6 2 4 5 4 6
32 29 26 24 22 19 19 23 30 39 31 4 8 5 4 2 3 4 6 6 6 5 4 3 5 2 9 4 5 5 5 6 5 6 7 4 4 3 4 3 5 5 5 7 8 8 9
30 28 25 22 19 18 17 21 30 37 33 8 8 8 4 6 5 6 5 4 5 4 4 3 4 6 6 3 4 4 3 4 3 2 4 5 5 4 3 4 6 7 3 4 3 5 8
29 26 23 20 18 17 15 17 24 33 31 11 6 6 5 4 2 5 4 6 6 4 4 3 4 1 3 3 3 3 3 2 3 4 2 3 3 4 2 3 8 7 2 2 5 7 6
27 24 23 20 18 16 15 14 19 30 27 11 3 4 4 3 1 2 3 6 4 3 5 5 4 3 3 4 3 4 3 5 2 4 6 7 6 4 3 2 8 6 3 7 6 1 6
25 22 21 18 16 16 15 12 15 26 26 23 6 8 8 4 3 6 9 5 2 7 6 0 4 4 5 4 1 4 2 2 2 3 2 2 6 4 9 6 4 6 4 3 2 3 5

GFSGBSN_925_spd_009.txt.gz
Wind_Speed
29 27 24 22 19 21 21 22 21 21 19 21 19 21 20 18 16 14 14 11 9 9 8 8 8 8 4 2 9 2 4 17 22 19 18 7 6 5 5 4 5 4 3 3 3 6 8
30 29 26 24 22 22 24 23 22 21 19 20 19 21 18 17 15 13 11 9 7 7 6 6 5 4 1 3 3 3 7 14 20 20 10 9 6 6 3 2 4 3 4 4 3 6 4
31 31 29 27 25 24 24 23 22 22 20 20 20 20 16 15 13 12 10 7 6 6 5 4 3 1 1 12 3 4 9 6 19 23 7 14 7 2 4 2 2 4 6 5 5 3 4
32 32 31 29 26 27 22 23 22 21 21 19 20 18 14 14 12 10 7 4 5 4 3 4 1 2 7 6 9 13 14 8 12 19 13 6 14 2 2 2 4 3 4 4 1 2 4
37 33 32 30 28 27 25 24 21 22 21 18 19 16 13 12 10 8 4 4 4 3 2 3 3 1 8 10 6 2 5 3 11 12 13 8 13 4 2 4 3 7 4 3 4 9 3
39 35 34 33 30 28 26 24 22 22 20 18 17 14 11 10 8 7 5 5 3 3 2 2 0 2 7 3 5 3 1 1 4 9 6 5 2 3 3 3 5 4 5 2 5 5 11
29 39 36 34 31 29 27 25 23 21 19 16 15 11 9 9 8 10 9 5 4 1 4 7 3 3 5 10 5 2 2 2 3 6 3 1 3 4 3 2 3 5 4 6 3 1 7
32 39 37 36 33 30 28 26 23 21 18 14 12 10 8 9 12 11 10 3 5 1 2 12 6 7 10 5 3 3 2 3 4 3 2 5 4 1 5 4 5 4 6 4 5 2 5
34 30 40 38 36 32 29 27 24 21 18 13 10 9 9 12 14 10 8 13 3 4 1 3 6 5 3 7 4 3 2 1 4 3 3 5 2 2 4 3 5 3 6 4 5 6 6
37 34 42 40 37 34 29 28 25 21 18 14 10 10 13 17 10 7 7 7 8 6 3 4 3 3 3 3 1 2 2 3 5 3 4 5 2 3 4 3 2 4 3 9 13 2 3
36 34 36 43 39 35 31 28 25 22 19 16 12 13 19 18 9 6 1 3 5 2 3 4 3 2 2 4 4 3 6 5 6 5 3 1 2 2 5 1 1 3 8 10 3 4 4
34 35 34 45 41 37 33 29 26 24 20 16 16 16 20 21 8 8 4 3 4 6 3 2 2 2 3 5 3 4 3 5 4 5 5 3 3 2 3 2 4 10 6 6 3 2 1
37 37 36 44 42 39 35 30 27 24 21 17 18 19 27 14 4 0 4 2 4 4 2 2 3 2 3 2 4 4 4 4 2 4 4 4 2 2 1 5 3 4 4 2 1 1 3
34 35 36 40 43 40 36 31 28 24 20 18 19 19 27 24 12 1 2 4 3 3 5 1 3 3 4 2 3 4 3 3 5 4 3 3 1 3 4 2 4 2 4 4 5 3 2
33 35 35 37 44 41 37 32 29 24 20 16 18 17 11 24 22 20 3 4 6 6 3 6 3 5 1 2 4 4 3 2 1 1 4 3 1 2 4 1 1 3 2 2 6 2 1
35 36 35 38 46 42 37 33 29 25 21 22 18 12 7 10 10 7 4 5 3 4 2 2 4 2 4 3 3 3 1 1 2 1 1 5 3 1 1 1 6 1 6 3 2 3 3
36 36 36 44 48 43 38 34 30 26 22 25 10 3 7 10 10 4 4 5 5 5 5 5 5 4 3 4 3 2 5 1 1 1 2 3 3 2 1 1 4 3 3 6 4 1 2
37 35 36 49 47 42 38 34 31 26 22 27 7 3 5 12 3 1 4 5 3 4 3 4 4 4 5 3 4 4 6 1 1 1 4 1 4 3 1 1 1 1 3 4 3 4 1
37 31 36 47 46 43 39 34 31 27 33 17 5 2 3 4 4 1 2 2 2 2 1 2 3 3 2 4 4 2 3 2 1 2 5 5 1 3 2 2 1 2 3 4 5 2 5
33 30 36 46 46 43 40 34 30 29 36 13 4 3 3 3 0 8 5 3 2 3 2 3 5 3 4 3 4 5 3 2 1 2 7 5 2 4 7 3 1 4 4 4 3 3 4
22 33 39 47 45 43 39 35 30 31 38 5 1 3 3 3 1 5 4 6 5 2 1 2 3 2 5 4 2 3 2 2 3 1 3 2 4 2 1 1 1 2 5 8 7 4 6
34 33 45 46 44 41 37 33 30 31 41 3 4 5 3 2 5 7 2 6 7 3 1 2 6 3 2 5 5 8 6 4 4 2 2 2 4 2 4 1 3 3 5 7 6 3 9
39 37 42 43 41 37 35 32 31 35 36 6 3 4 5 3 3 6 6 7 8 6 2 3 6 5 3 1 3 4 6 8 5 5 3 2 5 3 3 3 3 5 9 11 6 5 7
35 42 42 38 37 34 31 30 31 37 36 4 5 5 4 2 2 6 8 4 6 6 6 3 3 4 2 11 9 8 12 12 12 9 3 5 4 2 2 1 2 4 2 2 10 6 13
38 39 37 35 32 30 29 28 30 39 40 4 8 5 4 3 3 4 6 5 7 4 4 3 3 1 9 3 4 4 4 5 5 7 6 3 4 3 3 3 5 4 4 6 7 6 12
37 35 31 30 29 27 26 28 32 39 43 5 8 10 5 7 5 6 6 5 5 4 3 3 4 6 5 3 3 4 3 4 1 1 2 4 5 3 3 2 5 5 2 3 3 4 2
31 29 28 27 25 24 24 27 33 41 44 10 7 9 6 3 1 5 5 6 5 4 4 4 5 1 3 2 3 3 3 1 3 4 2 2 3 3 2 3 7 6 1 2 3 4 2
30 28 26 24 22 20 22 27 34 41 42 11 9 8 3 3 1 1 4 6 3 2 5 5 4 2 2 3 3 3 3 4 2 3 5 5 5 3 3 1 6 5 3 5 4 2 2
28 26 25 23 20 18 18 24 32 40 41 15 6 8 9 4 3 6 11 7 1 6 6 1 3 4 4 4 1 3 2 1 2 3 1 3 4 3 7 4 3 5 4 2 1 2 2